GW4541 Weather Reports


time (UTC)temp
C
wind
direction
speed
KPH
gust
KPH
rain 1hr
cm
rain 24hr
cm
rain mn
cm
humidity
%
barometer
mb
20260506221055 7 5 0.0 4.8 0.03 3.15 0.00 99 1009.4
20260506220055 7 338 0.0 6.4 0.03 3.15 0.00 99 1009.4
20260506215055 7 339 1.6 6.4 0.03 3.15 3.15 99 1009.4
20260506213055 7 339 0.0 4.8 0.00 3.12 3.12 99 1009.4
20260506212055 7 40 0.0 4.8 0.00 3.12 3.12 99 1009.4
20260506211056 7 44 0.0 3.2 0.00 3.15 3.12 99 1009.2
20260506210055 7 351 0.0 3.2 0.00 3.15 3.12 99 1009.2
20260506205055 7 332 1.6 3.2 0.00 3.15 3.12 99 1009.1
20260506203055 7 28 0.0 9.7 0.00 3.15 3.12 99 1009.1
20260506202054 7 66 3.2 4.8 0.00 3.15 3.12 99 1009.1
20260506201055 7 354 1.6 4.8 0.00 3.15 3.12 99 1008.8
20260506200055 7 39 0.0 4.8 0.00 3.15 3.12 99 1008.8
20260506195055 7 349 0.0 9.7 0.00 3.15 3.12 99 1009.0
20260506193055 7 312 3.2 11.3 0.00 3.15 3.12 99 1008.6
20260506191055 7 9 3.2 4.8 0.00 3.15 3.12 99 1008.4
20260506190055 7 60 1.6 9.7 0.00 3.15 3.12 99 1008.3
20260506185055 7 356 1.6 11.3 0.00 3.15 3.12 99 1008.3
20260506184055 7 35 1.6 4.8 0.00 3.15 3.12 99 1008.0
20260506183055 7 56 3.2 11.3 0.00 3.15 3.12 99 1008.1
20260506181055 7 344 0.0 9.7 0.00 3.15 3.12 99 1008.1
20260506180055 7 75 1.6 9.7 0.00 3.15 3.12 99 1007.7
20260506175055 7 7 0.0 6.4 0.00 3.15 3.12 99 1007.6
20260506174055 7 7 1.6 9.7 0.00 3.15 3.12 99 1007.6
20260506173055 7 24 3.2 12.9 0.03 3.15 3.12 99 1007.6
20260506172055 7 38 1.6 6.4 0.03 3.15 3.12 99 1007.3
20260506171055 7 75 1.6 4.8 0.03 3.15 3.12 99 1007.4
20260506170055 7 31 3.2 9.7 0.05 3.15 3.12 99 1007.4
20260506164055 7 8 1.6 11.3 0.08 3.15 3.12 99 1007.4
20260506163055 8 320 4.8 12.9 0.08 3.12 3.10 99 1007.3
20260506162055 8 7 3.2 6.4 0.10 3.12 3.10 99 1007.1
20260506161055 8 28 1.6 12.9 0.13 3.12 3.10 99 1007.1
20260506155055 8 17 0.0 11.3 0.15 3.10 3.07 99 1007.3
20260506154055 8 37 4.8 12.9 0.18 3.07 3.05 99 1007.1
20260506153055 8 26 0.0 11.3 0.18 3.05 3.02 99 1007.0
20260506152055 8 59 1.6 16.1 0.18 3.02 3.00 99 1007.0
20260506151055 8 36 6.4 6.4 0.18 3.00 2.97 99 1007.2
20260506150055 8 29 1.6 12.9 0.15 2.95 2.92 99 1007.1
20260506145054 8 77 0.0 14.5 0.15 2.92 2.92 99 1007.0
20260506143055 8 156 0.0 12.9 0.15 2.87 2.84 99 1007.1
20260506142055 8 296 3.2 11.3 0.13 2.84 2.82 99 1006.8
20260506141055 8 19 1.6 6.4 0.13 2.82 2.79 99 1006.9
20260506140055 8 22 6.4 6.4 0.10 2.79 2.77 99 1006.9
20260506135055 8 31 1.6 9.7 0.10 2.77 2.74 99 1006.8
20260506134055 8 72 0.0 6.4 0.08 2.74 2.72 99 1007.0
20260506132056 8 117 1.6 11.3 0.08 2.72 2.69 99 1006.8
20260506131054 8 344 3.2 6.4 0.05 2.69 2.67 99 1006.8
20260506130055 8 38 0.0 4.8 0.08 2.69 2.67 99 1006.7
20260506125055 8 44 0.0 6.4 0.05 2.67 2.64 99 1006.8
20260506123054 8 2 3.2 9.7 0.08 2.67 2.64 99 1006.7
20260506122055 7 87 0.0 11.3 0.05 2.64 2.62 99 1006.5
20260506121055 7 53 0.0 6.4 0.08 2.64 2.62 99 1006.5
20260506120055 7 46 0.0 6.4 0.05 2.62 2.59 99 1006.3
20260506115054 7 94 0.0 3.2 0.08 2.62 2.59 99 1006.2
20260506113055 7 139 1.6 11.3 0.08 2.59 2.57 99 1006.4
20260506112055 7 31 0.0 11.3 0.10 2.59 2.57 99 1006.2
20260506110055 7 176 0.0 9.7 0.10 2.57 2.54 99 1006.4
20260506105054 7 53 1.6 11.3 0.10 2.54 2.54 99 1006.4
20260506104055 7 346 1.6 6.4 0.13 2.54 2.51 99 1006.2
20260506103055 7 330 3.2 6.4 0.13 2.51 2.49 99 1006.1
20260506102054 7 103 3.2 9.7 0.13 2.49 2.49 99 1006.1
20260506101055 7 335 6.4 6.4 0.13 2.49 2.46 99 1006.0
20260506100054 7 27 3.2 11.3 0.10 2.46 2.44 99 1006.2
20260506095055 7 27 1.6 9.7 0.08 2.44 2.41 99 1006.1
20260506093055 6 58 0.0 6.4 0.03 2.39 2.36 99 1005.7
20260506092054 7 48 1.6 6.4 0.00 2.36 2.34 99 1005.7
20260506091055 6 91 0.0 6.4 0.03 2.36 2.34 99 1005.7
20260506085055 6 78 0.0 9.7 0.03 2.36 2.34 99 1005.5
20260506084054 6 56 3.2 9.7 0.03 2.36 2.34 99 1005.6
20260506083055 6 131 4.8 6.4 0.05 2.36 2.34 99 1005.6
20260506082055 6 11 3.2 14.5 0.08 2.36 2.34 99 1005.4
20260506081055 6 16 3.2 11.3 0.05 2.34 2.31 99 1005.3
20260506073055 6 322 1.6 11.3 0.13 2.31 2.29 99 1005.3
20260506072055 6 117 1.6 11.3 0.13 2.29 2.26 99 1005.3
20260506062055 8 30 3.2 6.4 0.28 2.16 2.13 99 1005.1
20260506061055 8 0 3.2 11.3 0.25 2.11 2.11 99 1004.6
20260506051056 8 13 0.0 3.2 0.18 1.85 1.83 99 1004.6
20260506045055 8 70 0.0 4.8 0.20 1.80 1.78 99 1004.8
20260506044056 8 56 0.0 6.4 0.20 1.75 1.73 99 1004.6
20260506043054 8 20 1.6 6.4 0.25 1.73 1.70 99 1004.8
20260506042055 8 46 0.0 3.2 0.28 1.70 1.68 99 1004.7
20260506041055 8 354 0.0 6.4 0.33 1.68 1.65 99 1004.7
20260506040055 8 68 0.0 4.8 0.38 1.65 1.63 99 1004.7
20260506034055 8 45 0.0 4.8 0.43 1.55 1.52 99 1004.8
20260506033055 8 84 3.2 9.7 0.43 1.47 1.45 99 1004.7
20260506032055 8 64 0.0 9.7 0.41 1.42 1.40 99 1004.8
20260506031055 8 42 1.6 6.4 0.41 1.35 1.32 99 1005.1
20260506030055 8 28 3.2 9.7 0.38 1.27 1.24 99 1005.1
20260506025055 8 356 0.0 3.2 0.36 1.22 1.19 99 1005.1
20260506023055 9 28 3.2 4.8 0.25 1.04 1.04 99 1005.3
20260506022054 9 7 0.0 4.8 0.23 0.99 0.97 99 1005.3
20260506021055 9 31 0.0 4.8 0.23 0.94 0.91 99 1005.4
20260506015055 9 46 0.0 4.8 0.23 0.86 0.84 99 1005.5
20260506014055 9 56 0.0 4.8 0.28 0.84 0.81 99 1005.7
20260506013055 9 97 0.0 6.4 0.30 0.79 0.76 99 1005.7
20260506012055 9 8 0.0 4.8 0.30 0.79 0.74 99 1005.7
20260506011055 9 120 0.0 4.8 0.30 0.74 0.69 99 1005.8
20260506010055 10 25 0.0 6.4 0.30 0.71 0.66 99 1005.8
20260506005055 10 30 1.6 4.8 0.28 0.66 0.61 99 1005.9
20260506004055 10 77 0.0 4.8 0.25 0.58 0.53 99 1005.9
20260506003055 10 80 0.0 3.2 0.20 0.51 0.46 99 1005.9
20260506002055 10 93 0.0 3.2 0.20 0.48 0.43 99 1006.2
20260506000055 10 63 0.0 9.7 0.20 0.41 0.36 99 1006.1
20260505235055 10 140 3.2 4.8 0.20 0.41 0.33 99 1006.4
20260505234054 10 67 3.2 9.7 0.20 0.36 0.28 99 1006.5
20260505233054 10 105 1.6 6.4 0.20 0.33 0.25 99 1006.4
20260505231054 10 63 1.6 6.4 0.20 0.28 0.20 99 1006.3
20260505230055 10 81 1.6 6.4 0.15 0.23 0.15 99 1006.6
20260505225055 10 19 0.0 4.8 0.13 0.20 0.13 99 1006.7
20260505224055 10 39 0.0 11.3 0.08 0.15 0.08 99 1006.6